This demonstration page uses our WeatherBlox Daily Observations layout. Learn more.

Left ArrowRight Arrow

Hourly Observations for November 26, 2022

Temp ( °F °C ) Dew Point ( °F °C ) Humidity (%) Winds ( mph kmh ) Pressure ( in mb ) Visibility ( mi km ) Precip ( " mm )
12:55 am 00:55 Clear 31 -0.8 22 -5.6 70 70 S 5 7 30.15 1021 10 16 0.00 0.00
1:55 am 01:55 Clear 29 -1.7 21 -6.1 72 72 S 5 7 30.13 1020 10 16 0.00 0.00
2:55 am 02:55 Clear 29 -1.6 22 -5.8 73 73 SSE 5 7 30.11 1020 10 16 0.00 0.00
3:55 am 03:55 Clear 28 -2.1 21 -6.1 74 74 S 3 6 30.09 1019 10 16 0.00 0.00
4:55 am 04:55 Clear 28 -2.5 21 -6.3 75 75 S 6 9 30.08 1019 10 16 0.00 0.00
5:55 am 05:55 Clear 28 -2.5 21 -6 77 77 S 5 7 30.01 1016 10 16 0.00 0.00
6:55 am 06:55 Clear 27 -2.6 21 -6.1 77 77 ESE 5 7 30.02 1017 10 16 0.00 0.00
7:55 am 07:55 Sunny 28 -2.2 22 -5.7 77 77 S 9 15 30.01 1016 10 16 0.00 0.00
8:55 am 08:55 Sunny 35 1.5 27 -2.8 73 73 S 9 15 29.99 1016 10 16 0.00 0.00
9:55 am 09:55 Sunny 43 6.3 29 -1.4 58 58 S 10 17 29.98 1015 10 16 0.00 0.00
10:55 am 10:55 Sunny 48 9 30 -1.1 49 49 S 10 17 29.95 1014 10 16 0.00 0.00
11:55 am 11:55 Sunny 48 9 30 -0.9 50 50 S 16 26 29.92 1013 10 16 0.00 0.00
12:55 pm 12:55 Sunny 51 10.5 31 -0.6 46 46 S 12 19 29.88 1012 10 16 0.00 0.00
1:55 pm 13:55 Partly Cloudy 57 14.1 27 -2.8 31 31 S 10 17 29.83 1010 10 16 0.00 0.00
2:55 pm 14:55 Sunny 58 14.3 23 -5 26 26 S 13 20 29.80 1009 10 16 0.00 0.00
3:55 pm 15:55 Cloudy 55 12.5 27 -2.9 34 34 S 8 13 29.78 1009 10 16 0.00 0.00
4:55 pm 16:55 Cloudy 50 9.9 31 -0.6 48 48 ESE 8 13 29.78 1009 10 16 0.00 0.00
5:55 pm 17:55 Mostly Cloudy 49 9.2 31 -0.4 51 51 SSE 5 7 29.80 1009 10 16 0.00 0.00
6:55 pm 18:55 Cloudy 49 9.3 31 -0.6 50 50 WNW 7 11 29.78 1008 10 16 0.00 0.00
7:26 pm 19:26 Cloudy with Light Rain 48 9 32 0 53 53 SSE 6 9 29.78 1008 10 16 0.00 0.00
7:55 pm 19:55 Cloudy with Rain 45 7.2 35 1.7 68 68 Calm 29.77 1008 8 13 0.03 0.76
8:29 pm 20:29 Cloudy 45 7 37 3 76 76 Calm 29.76 1008 10 16 0.00 0.00
8:55 pm 20:55 Cloudy 45 7.4 38 3.3 75 75 Calm 29.76 1008 10 16 0.02 0.51
9:03 pm 21:03 Cloudy with Light Showers 45 7 39 4 81 81 Calm 29.76 1008 10 16 0.00 0.00
9:55 pm 21:55 Cloudy with Light Showers 45 7.2 39 4 80 80 N 6 9 29.75 1007 10 16 0.02 0.51
10:55 pm 22:55 Cloudy with Light Showers 46 7.6 33 0.8 62 62 NW 6 9 29.73 1007 10 16 0.02 0.51
11:14 pm 23:14 Cloudy 45 7 32 0 61 61 NNW 5 7 29.73 1007 10 16 0.00 0.00
11:55 pm 23:55 Cloudy 44 6.8 33 0.5 64 64 NNW 14 22 29.74 1007 10 16 0.01 0.13

Powered by AerisWeather